Jackpot

Texas Poker Multi Jackpot System

Kini Telah hadir Jackpot SUPER ROYAL FLUSH

Kini Telah hadir Jackpot 2000 (khusus table VIP keatas).

Ikutilah global jackpot yang tersedia di system kami, dengan system jackpot terbaru dan pertama di indonesia, anda dapat membeli jackpot dengan harga 100 rupiah saja dan menangkan hadiahnya hingga puluhan juta rupiah.

Jackpot bukanlah suatu keharusan untuk dibeli, namun kami memberikan suatu fitur tambahan untuk member tercinta dari www.mejavip.net.

Terdapat tiga pilihan harga jackpot yang bisa anda beli yaitu :100,500,1000 dan 2000(khusus table VIP Keatas) rupiah.

Hadiah dari Multi jackpot system www.mejavip.net

  1. full house x 10 harga jackpot yang anda beli.
      (contoh:anda membeli 1000 maka:1000 X10 = 10.000)
  2. four of kind x 250 harga jackpot yang anda beli
      (contoh:anda membeli 1000 maka:1000 X250 = 250.000)
  3. Straight flush x 1200
      (contoh:anda membeli 1000 maka:1000 X1200 = 1.200.000)
  4. Royal flush x 10000 harga jackpot yang anda beli
      (contoh:anda membeli 1000 maka:1000 X10000 = 10.000.000)
  5. SUPER ROYAL FLUSH x 30000 harga jackpot yang anda beli
      (contoh:anda membeli 1000 maka:1000 X30000 = 30.000.000)

Kondisi kartu

  1. full house adalah kondisi kartu dimana kartu anda dan kartu tengah dengan total 7 kartu bisa mendapatkan nilai 5 kartu dengan kombinasi 1 tris(three of kind) dan 1 pair, contoh 3 kartu 10 dan 2 kartu 5
  2. Four of kind adalah kondisi kartu dimana kartu anda dan kartu tengah dengan total 7 kartu bisa mendapatkan nilai 5 kartu dengan kombinasi 4 kartu yang sama jumlah dan 1 kartu apapun juga contoh anda mendapatkan 4 buah kartu angka 3 dan 1 kartu apapun.
  3. Staright flush adalah kondisi kartu dimana kartu anda dan kartu tengah dengan total 7 kartu bisa mendapatkan nilai 5 kartu dengan kombinasi seri / staright dengan kembang yang sama contoh : urutan kartu dari angka 5, 6, 7, 8 , 9 10 dengan kembang yg sama misalnya as hati
  4. Royal flush adalah kondisi kartu dimana kartu anda dan kartu tengah dengan total 7 kartu bisa mendapatkan nilai 5 kartu dengan kombinasi seri / staright dengan kembang yang sama tetapi kartu tersebut haruslah dimulai dari 10. contoh 10, Queen, Jack, King dan aces dengan kembang yang sama
  5. Super Royal flush adalah kondisi kartu dimana Kedua kartu anda digabung dengan 3 kartu pertama meja haruslah royal flush. contoh kartu anda 10,Queen kembang sama dan 3 kartu pertama meja adalah Jack, King dan aces dengan kembang yang sama

Demikian adalah penjelasan dari Multi Jackpot www.mejavip.net terima kasih dan selamat bermain salam hoki dari kami

Texas Poker Jackpot Winner

TOP SUPER ROYAL FLUSH
No.TanggalNamaPriceWin
120/08 14:28D97DD329Super Royal flush3,000,000
220/08 12:05HANDAN21Super Royal flush15,000,000
320/08 08:15KAWUL696Super Royal flush6,000,000
420/08 03:13MFF15Super Royal flush3,000,000
520/08 02:38USER9324Super Royal flush6,000,000
TOP ROYAL FLUSH
No.TanggalNamaPriceWin
120/08 17:43LB993628Royal flush2,000,000
220/08 17:33SIROMES_SSRoyal flush2,000,000
320/08 17:18GINTING_01Royal flush1,000,000
420/08 17:01DADDYYAKEERoyal flush1,000,000
520/08 16:54TAJAPIKRoyal flush500,000
TOP STRAIGHT FLUSH
No.TanggalNamaPriceWin
120/08 17:47AZIZ669Straight Flush120,000
220/08 17:47RIMSSING7Straight Flush600,000
320/08 17:47PEDULI22Straight Flush600,000
420/08 17:46L0033NNStraight Flush1,200,000
520/08 17:46W0KW0WStraight Flush600,000
LATEST JACKPOT
No.TanggalNamaPriceWin
120/08 17:50DBB848ADFull House2,000
220/08 17:50FEREMOFull House2,000
320/08 17:50TEMPETAHU9Full House2,000
420/08 17:50T4LULU4_45Full House5,000
520/08 17:50PACINKO258Full House10,000
620/08 17:50CUEXX69Full House5,000
720/08 17:50ZAIDAN86Full House1,000
820/08 17:50CB77HUNT3R99Full House1,000
920/08 17:50RIZ066Full House10,000
1020/08 17:50BHIKFull House2,000
1120/08 17:50OY9LHWOSFTFull House2,000
1220/08 17:50ANJ1NGAERFull House2,000
1320/08 17:50JAJAKA55Full House5,000
1420/08 17:50KARINA27Full House2,000
1520/08 17:50BANTUJPB0SFull House2,000
1620/08 17:50INTANPERMAFull House2,000
1720/08 17:50CEKMANSUR3Full House2,000
1820/08 17:50DJXFull House2,000
1920/08 17:50ROBOCOP29Full House2,000
2020/08 17:50MV499646Full House1,000
2120/08 17:50A98UKROMIN558Full House2,000
2220/08 17:50ARIDJPFull House2,000
2320/08 17:50D0AE26F6Full House1,000
2420/08 17:50MADAROFull House1,000
2520/08 17:50JPBAE88Full House10,000
2620/08 17:50BARU4K01Full House5,000
2720/08 17:50SRIWULAN95Four Of A Kind25,000
2820/08 17:50LUNGZET45Full House5,000
2920/08 17:50IYAD112Full House20,000
3020/08 17:50LUBISH3NFull House2,000
3120/08 17:50ADRI365Full House10,000
3220/08 17:50PLAYERDUAFull House2,000
3320/08 17:50KIRANA07Full House2,000
3420/08 17:50HEHE91Full House20,000
3520/08 17:50S4583Full House10,000
3620/08 17:50MEME33Full House1,000
3720/08 17:50PAKEKAFull House2,000
3820/08 17:50SUKIRJUARAFull House20,000
3920/08 17:50INDRAMEPEGFull House5,000
4020/08 17:50HAMIM18Full House5,000
4120/08 17:50IDK899793Full House2,000
4220/08 17:50JEGRAXFull House10,000
4320/08 17:50MEK4R_99Full House1,000
4420/08 17:50GEDEBARRRFull House10,000
4520/08 17:50YANMAN554Full House5,000
4620/08 17:49BRAH4WFull House1,000
4720/08 17:49BOSS22Full House1,000
4820/08 17:49KEJORA73Four Of A Kind250,000
4920/08 17:49NYEMPRET69Full House1,000
5020/08 17:49MELA86Full House2,000

Domino Multi Jackpot System

Ikutilah global jackpot yang tersedia di system kami, dengan system jackpot terbaru dan pertama di indonesia, anda dapat membeli jackpot dengan harga 100 rupiah saja dan menangkan hadiahnya hingga puluhan juta rupiah.

Jackpot bukanlah suatu keharusan untuk dibeli, namun kami memberikan suatu fitur tambahan untuk member tercinta dari www.mejavip.net.

Terdapat tiga pilihan harga jackpot yang bisa anda beli yaitu :100,500 dan 1000 rupiah.

Hadiah dari Multi jackpot system www.mejavip.net

  1. Murni Kecil x 50 harga jackpot yang anda beli.
      (contoh:anda membeli 1000 maka:1000 X 50 = 50.000)
  2. Murni Besar x 50 harga jackpot yang anda beli
      (contoh:anda membeli 1000 maka:1000 X 50 = 50.000)
  3. BALAK x 100 harga jackpot yang anda beli
      (contoh:anda membeli 1000 maka:1000 X 100 = 100.000)
  4. ENAM DEWA x 6666 harga jackpot yang anda beli
      (contoh:anda membeli 1000 maka:1000 X 6666 = 6.666.000)

Demikian adalah penjelasan dari Multi Jackpot www.mejavip.net terima kasih dan selamat bermain salam hoki dari kami

Domino Jackpot Winner

TOP ENAM DEWA
No.TanggalNamaPriceWin
120/08 17:14SINAKmurni enam6,666,000
220/08 12:01JALAT123murni enam666,600
320/08 11:27GOBANG28murni enam3,333,000
420/08 11:21ITILXXmurni enam666,600
520/08 10:43SYGKAMU88murni enam6,666,000
TOP BALAK
No.TanggalNamaPriceWin
120/08 17:49SYAITONbalak50,000
220/08 17:49KONYING87balak10,000
320/08 17:47GPGITAbalak50,000
420/08 17:46JMPUTRAbalak50,000
520/08 17:46SQUAD6balak100,000
LATEST JACKPOT
No.TanggalNamaPriceWin
120/08 17:50MERICI11murni besar5,000
220/08 17:50JKPURNOMmurni besar25,000
320/08 17:50AFRIDULmurni besar25,000
420/08 17:49ASPIRE09murni kecil25,000
520/08 17:49SYAITONbalak50,000
620/08 17:49KONYING87balak10,000
720/08 17:49ZUIIImurni kecil50,000
820/08 17:49FIRANDAJKDmurni besar5,000
920/08 17:48SQUAD6murni kecil50,000
1020/08 17:48BIGBRO98murni kecil50,000
1120/08 17:47GPGITAbalak50,000
1220/08 17:47RIZAL1986murni kecil50,000
1320/08 17:46YUKA99murni kecil25,000
1420/08 17:46ANDI777murni besar50,000
1520/08 17:46ZAZA101murni besar25,000
1620/08 17:46JMPUTRAbalak50,000
1720/08 17:46SQUAD6balak100,000
1820/08 17:45EMERON72balak100,000
1920/08 17:45BALDOMD1murni besar50,000
2020/08 17:43CHA1303balak100,000
2120/08 17:43SAPI12murni besar5,000
2220/08 17:43MANSAR91balak50,000
2320/08 17:43COCOTE_9murni kecil50,000
2420/08 17:42BBD60A76murni kecil5,000
2520/08 17:42GITONG04murni kecil50,000
2620/08 17:41C1CDFB80balak50,000
2720/08 17:41ICHAL46murni kecil50,000
2820/08 17:41LAILA33lucky9910,000
2920/08 17:40LUWEKmurni kecil25,000
3020/08 17:40COCOTE_9murni besar50,000
3120/08 17:40SUKOYYYbalak100,000
3220/08 17:40WAWE87murni besar5,000
3320/08 17:39RUBUL77murni kecil25,000
3420/08 17:39PAUD33murni kecil25,000
3520/08 17:38WIN51617murni kecil25,000
3620/08 17:35L4NGHUTmurni kecil25,000
3720/08 17:35ED473B6Dmurni besar25,000
3820/08 17:35W4T312lucky9950,000
3920/08 17:35LADHANKA08murni besar25,000
4020/08 17:35Y4SEHAE6E2murni besar5,000
4120/08 17:35SERIA99murni kecil25,000
4220/08 17:34DRAGONZIDmurni kecil25,000
4320/08 17:33SIMBAHbalak100,000
4420/08 17:32AMINAH85murni kecil50,000
4520/08 17:32EMON168murni besar50,000
4620/08 17:32PAMUD007balak50,000
4720/08 17:32PALTOK01balak100,000
4820/08 17:32AS5758murni besar50,000
4920/08 17:31SSSD9999murni kecil50,000
5020/08 17:31SHR72murni kecil50,000

Ceme Multi Jackpot System

Jackpot dilihat dari gabungan kartu pemain dengan kartu bandar. Bandar harus membeli jackpot sebanyak jumlah player yang sedang duduk. Sebagai contoh bila terdapat 3 pemain duduk bermain, dan bandar memutuskan untuk membeli jackpot Rp 1.000, maka pada periode tersebut bandar akan membeli jackpot sebanyak 3xRp1.000 = Rp3.000.

Jackpot bukanlah suatu keharusan untuk dibeli, namun kami memberikan suatu fitur tambahan untuk member tercinta dari www.mejavip.net.

Terdapat tiga pilihan harga jackpot yang bisa anda beli yaitu :100,500 dan 1000 rupiah.

Hadiah dari Multi jackpot system www.mejavip.net

  1. Murni Kecil x 50 harga jackpot yang anda beli.
      (contoh:anda membeli 1000 maka:1000 X 50 = 50.000)
  2. Murni Besar x 50 harga jackpot yang anda beli
      (contoh:anda membeli 1000 maka:1000 X 50 = 50.000)
  3. BALAK x 200 harga jackpot yang anda beli
      (contoh:anda membeli 1000 maka:1000 X 200 = 200.000)
  4. ENAM DEWA x 6666 harga jackpot yang anda beli
      (contoh:anda membeli 1000 maka:1000 X 6666 = 6.666.000)

Demikian adalah penjelasan dari Multi Jackpot www.mejavip.net terima kasih dan selamat bermain salam hoki dari kami

Ceme Jackpot Winner

TOP ENAM DEWA
No.TanggalNamaPriceWin
120/08 17:34HAKIM1803murni enam6,666,000
220/08 17:21BAM778murni enam666,600
320/08 17:21NOVITA76murni enam666,600
420/08 17:04IKANKOIIImurni enam6,666,000
520/08 17:04CHONGOR76murni enam6,666,000
TOP BALAK
No.TanggalNamaPriceWin
120/08 17:50NEDDY19balak20,000
220/08 17:50AI27Rbalak200,000
320/08 17:50WISHSON22balak200,000
420/08 17:50PANGKAS10balak20,000
520/08 17:49KECEK21balak200,000
LATEST JACKPOT
No.TanggalNamaPriceWin
120/08 17:50SALEPOHmurni besar25,000
220/08 17:50AL_HABSYmurni kecil50,000
320/08 17:50PEYEK_XXXmurni kecil5,000
420/08 17:50MULDINmurni kecil25,000
520/08 17:50IDUTEAmurni besar50,000
620/08 17:50BANDUNG001murni besar50,000
720/08 17:50LB999289murni besar50,000
820/08 17:50NEDDY19balak20,000
920/08 17:50AI27Rbalak200,000
1020/08 17:50OEOFCKVHT6murni kecil5,000
1120/08 17:50K14Y24L1murni kecil25,000
1220/08 17:50AYYASSSmurni kecil50,000
1320/08 17:50WISHSON22balak200,000
1420/08 17:50ALPA72murni kecil50,000
1520/08 17:50RF201113murni kecil25,000
1620/08 17:50AJHAHSGGmurni kecil25,000
1720/08 17:50EASTER77murni kecil25,000
1820/08 17:50LAWWASmurni kecil50,000
1920/08 17:50PECAH0TAKmurni kecil5,000
2020/08 17:50YAYANN123murni kecil25,000
2120/08 17:50GOK1LSMENmurni kecil50,000
2220/08 17:50NANDII12murni kecil50,000
2320/08 17:50PANGKAS10balak20,000
2420/08 17:49A19LANDY402murni besar50,000
2520/08 17:49BARDO77murni besar25,000
2620/08 17:49KECEK21balak200,000
2720/08 17:49ADMINBABIImurni kecil50,000
2820/08 17:49DWBTTRA181murni kecil50,000
2920/08 17:49PODOLAPUmurni kecil50,000
3020/08 17:49FER8899murni kecil5,000
3120/08 17:49ESFRANGKIKmurni kecil25,000
3220/08 17:49NURDIN1409murni kecil50,000
3320/08 17:49BANKKUmurni besar50,000
3420/08 17:49RDI234murni kecil50,000
3520/08 17:49BA979266murni kecil5,000
3620/08 17:49BA979266murni kecil5,000
3720/08 17:49CAIR089murni kecil25,000
3820/08 17:49PUTRY2305balak200,000
3920/08 17:49FL4SND4RJPmurni kecil5,000
4020/08 17:48LONTOPmurni besar50,000
4120/08 17:48MATA6666murni kecil50,000
4220/08 17:48CAPCUS00murni besar25,000
4320/08 17:48AJHAHSGGmurni besar25,000
4420/08 17:48NATAOVJ32murni besar5,000
4520/08 17:48LEKANG14balak200,000
4620/08 17:48WELUT31murni besar50,000
4720/08 17:48AIZUL23balak20,000
4820/08 17:48ROSSA12murni kecil50,000
4920/08 17:48OCTA79balak100,000
5020/08 17:47ADMINBABIImurni besar50,000